sat.trackr.live / text

‹ back to catalog

STARLINK-34898

NORAD 65895 · 2025-224P

PAYLOAD ACTIVE UNKNOWN

§ Identity

Operator
Country
US
Launch date
2025-10-07
Launch site
AFETR
Launch vehicle
Mass (kg)
RCS (m²)

Purposes: comms

External: N2YO · Heavens-Above · Gunter

§ Orbital elements

Epoch: 2026-09-19T12:37:51.016224Z

Period
93.85 min
Inclination
53.1596°
Eccentricity
0.0000582
Mean motion
15.34411602 rev/d
Perigee alt
462.3 km
Apogee alt
463.1 km
Semi-major
6,840.8 km
B*
3.8278e-4
RAAN
186.5898°
Arg perigee
99.5250°
Mean anomaly
260.5818°
Rev number
5,461

§ Raw data

STARLINK-348981 65895U 25224P   26262.52628491  .00012583  00000+0  38278-3 0  99922 65895  53.1596 186.5898 0000582  99.5250 260.5818 15.34411602 54617

JSON: /api/v1/satellites/65895 · /tle

For live sub-satellite position, see the globe view (requires WebGL).

§ Visibility from observer

Set your observer location to see the next 7 days of passes ≥ 10°. The values pass through the URL so the page stays shareable.

No JS? Fill the form by hand. The geolocation button needs JavaScript.